{"data":{"norad_id":63714,"intl_designator":"2025-087T","name":"STARLINK-33745","alt_names":[],"object_type":"PAYLOAD","status":"ACTIVE","operator":null,"country":"US","launch_date":"2025-04-28","launch_site_code":"AFWTR","launch_vehicle":null,"mission":null,"orbit_class":"UNKNOWN","rcs_meters":null,"size_class":null,"mass_kg":null,"dimensions":null,"purposes":["comms"],"wikipedia_slug":null,"has_3d_model":false,"image_url":null,"decayed_at":null,"tle_current":{"epoch":"2026-09-20T14:58:33.949056Z","epoch_age_seconds":142262,"freshness":"FRESH","line1":"1 63714U 25087T   26263.62400404  .00024188  00000+0  72477-3 0  9994","line2":"2 63714  53.1612  32.7809 0001184  82.0654 278.0483 15.34396439 79060","mean_motion":15.34396439,"eccentricity":0.0001184,"inclination_deg":53.1612,"raan_deg":32.7809,"arg_perigee_deg":82.0654,"mean_anomaly_deg":278.0483,"bstar":0.00072477,"rev_number":7906,"period_min":93.847975881545,"perigee_km":461.90386753243,"apogee_km":463.52378100762,"semimajor_km":6840.85082427,"source":"CELESTRAK","updated_at":"2026-09-21T09:00:35.065836Z"}}}